16/06/2011,00:00:10,   0.0,  0.0,  183,+10.0,  73.1,    0.2,  +13.7,  +14.9,   +8.4,+1100.00,0E
16/06/2011,00:00:28,   0.0,  0.0,  201,+10.0,  73.1,    0.1,  +13.8,  +14.9,   +8.4,+1100.00,0E
16/06/2011,00:00:54,   0.0,  0.0,  206,+10.0,  73.0,    0.2,  +13.7,  +15.0,   +8.4,+1100.00,09
16/06/2011,00:01:12,   0.0,  0.0,  210,+10.0,  73.0,    0.3,  +13.7,  +14.9,   +8.4,+1100.00,08
16/06/2011,00:01:30,   0.0,  0.0,  231,+10.0,  73.0,    0.1,  +13.8,  +14.9,   +8.4,+1100.00,0A
16/06/2011,00:01:48,   0.0,  0.7,  178,+10.0,  73.1,    0.4,  +13.8,  +14.9,   +8.4,+1100.00,28
16/06/2011,00:02:14,   0.0,  1.6,  191,+10.0,  73.1,    0.2,  +13.7,  +15.0,   +8.3,+1100.00,11
16/06/2011,00:02:32,   0.0,  2.1,  209,+10.0,  73.3,    0.3,  +13.8,  +14.9,   +8.4,+1100.00,1A
16/06/2011,00:02:50,   0.0,  1.9,  207,+10.0,  73.5,    0.0,  +13.8,  +14.9,   +8.3,+1100.00,1D
16/06/2011,00:03:15,   0.0,  1.6,  182, +9.9,  73.5,    0.2,  +13.7,  +14.9,   +8.3,+1100.00,20
16/06/2011,00:03:33,   0.0,  1.4,  233, +9.9,  73.5,    0.4,  +13.8,  +14.9,   +8.4,+1100.00,1F
16/06/2011,00:03:51,   0.0,  1.7,  212, +9.9,  73.6,    0.3,  +13.7,  +15.0,   +8.3,+1100.00,15
16/06/2011,00:04:09,   0.0,  2.5,  202, +9.9,  73.9,    0.0,  +13.7,  +15.0,   +8.3,+1100.00,17
16/06/2011,00:04:35,   0.0,  1.4,  194, +9.9,  73.8,    0.1,  +13.6,  +15.0,   +8.2,+1100.00,1C
16/06/2011,00:04:53,   0.0,  2.1,  203, +9.9,  73.8,    0.2,  +13.8,  +14.9,   +8.3,+1100.00,1D
16/06/2011,00:05:11,   0.0,  1.2,  201, +9.9,  73.9,    0.1,  +13.7,  +15.0,   +8.3,+1100.00,0D
16/06/2011,00:05:29,   0.0,  2.0,  211, +9.9,  74.0,    0.0,  +13.7,  +14.9,   +8.2,+1100.00,14
16/06/2011,00:05:54,   0.0,  0.1,  244, +9.9,  74.2,    0.1,  +13.7,  +14.9,   +8.2,+1100.00,1A
16/06/2011,00:06:12,   0.0,  0.0,  242, +9.9,  74.2,    0.1,  +13.8,  +14.9,   +8.3,+1100.00,14
16/06/2011,00:06:30,   0.0,  0.0,  212, +9.8,  74.3,    0.3,  +13.8,  +14.9,   +8.3,+1100.00,13
16/06/2011,00:06:48,   0.0,  0.0,  232, +9.8,  74.3,    0.1,  +13.7,  +14.9,   +8.2,+1100.00,1A
16/06/2011,00:07:14,   0.0,  0.0,  208, +9.8,  74.3,    0.1,  +13.7,  +15.0,   +8.3,+1100.00,10
16/06/2011,00:07:32,   0.0,  0.0,  179, +9.8,  74.4,    0.2,  +13.8,  +14.9,   +8.3,+1100.00,22
16/06/2011,00:07:50,   0.0,  0.0,  219, +9.8,  74.4,    0.1,  +13.8,  +14.9,   +8.3,+1100.00,1C
16/06/2011,00:08:15,   0.0,  0.0,  214, +9.8,  74.4,    0.3,  +13.6,  +15.0,   +8.2,+1100.00,10
16/06/2011,00:08:33,   0.0,  0.0,  211, +9.8,  74.5,    0.1,  +13.8,  +14.9,   +8.2,+1100.00,16
16/06/2011,00:08:51,   0.0,  0.0,  209, +9.8,  74.6,    0.2,  +13.7,  +15.0,   +8.2,+1100.00,16
16/06/2011,00:09:09,   0.0,  0.0,  214, +9.8,  74.7,    0.4,  +13.7,  +15.0,   +8.2,+1100.00,19
16/06/2011,00:09:35,   0.0,  1.7,  222, +9.8,  74.7,    0.1,  +13.8,  +14.9,   +8.2,+1100.00,25
16/06/2011,00:09:53,   0.0,  0.3,  247, +9.8,  74.7,    0.3,  +13.7,  +14.9,   +8.2,+1100.00,28
16/06/2011,00:10:11,   0.0,  0.0,  244, +9.8,  74.8,    0.2,  +13.7,  +14.9,   +8.2,+1100.00,14
16/06/2011,00:10:29,   0.0,  0.0,  223, +9.7,  74.9,    0.0,  +13.9,  +14.8,   +8.2,+1100.00,19
16/06/2011,00:10:54,   0.0,  0.0,  201, +9.7,  75.0,    0.0,  +13.7,  +14.9,   +8.2,+1100.00,0A
16/06/2011,00:11:12,   0.0,  0.0,  200, +9.7,  75.0,    0.3,  +13.7,  +14.9,   +8.2,+1100.00,07
16/06/2011,00:11:30,   0.0,  0.0,  212, +9.7,  75.0,    0.3,  +13.7,  +14.9,   +8.2,+1100.00,0A
16/06/2011,00:11:48,   0.0,  0.0,  215, +9.7,  75.0,    0.1,  +13.8,  +14.8,   +8.2,+1100.00,14
16/06/2011,00:12:14,   0.0,  0.0,  198, +9.7,  75.1,    0.2,  +13.8,  +14.9,   +8.2,+1100.00,1B
16/06/2011,00:12:32,   0.0,  0.0,  196, +9.7,  75.2,    0.3,  +13.6,  +15.0,   +8.1,+1100.00,10
16/06/2011,00:12:50,   0.0,  0.0,  238, +9.7,  75.1,    0.1,  +13.8,  +14.9,   +8.2,+1100.00,15
16/06/2011,00:13:15,   0.0,  0.0,  195, +9.7,  75.2,    0.1,  +13.8,  +14.8,   +8.2,+1100.00,19
16/06/2011,00:13:33,   0.0,  0.0,  196, +9.7,  75.2,    0.0,  +13.7,  +14.9,   +8.2,+1100.00,19
16/06/2011,00:13:51,   0.0,  1.1,  212, +9.7,  75.3,    0.3,  +13.7,  +15.0,   +8.2,+1100.00,0C
16/06/2011,00:14:09,   0.0,  1.2,  214, +9.7,  75.1,    0.1,  +13.8,  +14.9,   +8.2,+1100.00,18
16/06/2011,00:14:35,   0.0,  1.6,  186, +9.7,  75.2,    0.2,  +13.7,  +14.9,   +8.1,+1100.00,23
16/06/2011,00:14:53,   0.0,  0.3,  203, +9.7,  75.3,    0.0,  +13.7,  +15.0,   +8.1,+1100.00,0C
16/06/2011,00:15:11,   0.0,  2.3,  225, +9.7,  75.3,    0.3,  +13.7,  +15.0,   +8.1,+1100.00,10
16/06/2011,00:15:29,   0.0,  1.8,  186, +9.7,  75.4,    0.1,  +13.8,  +14.9,   +8.1,+1100.00,2B
16/06/2011,00:15:54,   0.0,  2.2,  208, +9.7,  75.5,    0.1,  +13.7,  +14.9,   +8.1,+1100.00,1F
16/06/2011,00:16:12,   0.0,  2.4,  222, +9.7,  75.5,    0.1,  +13.8,  +14.9,   +8.2,+1100.00,1A
16/06/2011,00:16:30,   0.0,  2.2,  203, +9.7,  75.6,    0.3,  +13.7,  +14.9,   +8.1,+1100.00,18
16/06/2011,00:16:48,   0.0,  1.1,  201, +9.7,  75.6,    0.4,  +13.8,  +14.9,   +8.2,+1100.00,20
16/06/2011,00:17:14,   0.0,  1.7,  205, +9.7,  75.6,    0.2,  +13.7,  +14.9,   +8.2,+1100.00,21
16/06/2011,00:17:32,   0.0,  1.5,  247, +9.7,  75.6,    0.0,  +13.7,  +15.0,   +8.1,+1100.00,1A
16/06/2011,00:17:50,   0.0,  1.4,  246, +9.7,  75.7,    0.1,  +13.7,  +15.0,   +8.1,+1100.00,1A
16/06/2011,00:18:15,   0.0,  1.7,  214, +9.7,  75.7,    0.1,  +13.8,  +14.8,   +8.2,+1100.00,23
16/06/2011,00:18:33,   0.0,  1.5,  198, +9.7,  75.8,    0.1,  +13.7,  +14.9,   +8.1,+1100.00,2C
16/06/2011,00:18:51,   0.0,  1.5,  192, +9.6,  75.9,    0.3,  +13.7,  +14.9,   +8.1,+1100.00,28
16/06/2011,00:19:09,   0.0,  0.6,  182, +9.7,  75.9,    0.1,  +13.7,  +15.0,   +8.1,+1100.00,22
16/06/2011,00:19:35,   0.0,  2.4,  204, +9.6,  76.1,    0.1,  +13.7,  +14.9,   +8.1,+1100.00,1C
16/06/2011,00:19:53,   0.0,  1.2,  181, +9.6,  76.1,    0.0,  +13.8,  +14.9,   +8.1,+1100.00,1D
16/06/2011,00:20:11,   0.0,  1.4,  194, +9.6,  76.1,    0.1,  +13.7,  +14.9,   +8.1,+1100.00,15
16/06/2011,00:20:29,   0.0,  2.8,  213, +9.6,  76.2,    0.0,  +13.7,  +14.9,   +8.1,+1100.00,1B
16/06/2011,00:20:54,   0.0,  2.8,  208, +9.6,  76.3,    0.1,  +13.7,  +14.9,   +8.1,+1100.00,1F
16/06/2011,00:21:12,   0.0,  1.8,  188, +9.6,  76.3,    0.3,  +13.7,  +14.9,   +8.1,+1100.00,22
16/06/2011,00:21:30,   0.0,  2.1,  215, +9.6,  76.4,    0.3,  +13.6,  +15.0,   +8.0,+1100.00,0A
16/06/2011,00:21:48,   0.0,  2.2,  238, +9.6,  76.3,    0.1,  +13.8,  +14.9,   +8.1,+1100.00,21
16/06/2011,00:22:14,   0.0,  1.4,  189, +9.6,  76.3,    0.1,  +13.7,  +14.9,   +8.1,+1100.00,20
16/06/2011,00:22:32,   0.0,  1.4,  209, +9.6,  76.4,    0.0,  +13.7,  +14.9,   +8.1,+1100.00,19
16/06/2011,00:22:50,   0.0,  2.3,  230, +9.6,  76.4,    0.1,  +13.8,  +14.9,   +8.1,+1100.00,15
16/06/2011,00:23:15,   0.0,  2.2,  200, +9.6,  76.6,    0.2,  +13.8,  +14.9,   +8.1,+1100.00,16
16/06/2011,00:23:33,   0.0,  1.8,  217, +9.6,  76.5,    0.0,  +13.7,  +14.9,   +8.1,+1100.00,1F
16/06/2011,00:23:51,   0.0,  2.0,  227, +9.6,  76.5,    0.2,  +13.7,  +14.9,   +8.1,+1100.00,1B
16/06/2011,00:24:09,   0.0,  1.4,  189, +9.6,  76.6,    0.4,  +13.9,  +14.8,   +8.2,+1100.00,2E
16/06/2011,00:24:35,   0.0,  2.2,  188, +9.6,  76.6,    0.3,  +13.7,  +14.9,   +8.1,+1100.00,28
16/06/2011,00:24:53,   0.0,  2.7,  181, +9.6,  76.7,    0.0,  +13.9,  +14.8,   +8.1,+1100.00,25
16/06/2011,00:25:11,   0.0,  3.1,  204, +9.6,  76.8,    0.3,  +13.7,  +14.9,   +8.1,+1100.00,1A
16/06/2011,00:25:29,   0.0,  2.0,  196, +9.6,  76.9,    0.1,  +13.7,  +14.9,   +8.1,+1100.00,2A
16/06/2011,00:25:54,   0.0,  1.9,  187, +9.6,  77.0,    0.1,  +13.8,  +14.9,   +8.1,+1100.00,29
16/06/2011,00:26:12,   0.0,  1.5,  211, +9.6,  77.0,    0.2,  +13.7,  +14.9,   +8.1,+1100.00,14
16/06/2011,00:26:30,   0.0,  1.4,  253, +9.6,  77.0,    0.3,  +13.7,  +14.9,   +8.1,+1100.00,1A
16/06/2011,00:26:48,   0.0,  1.9,  201, +9.6,  77.0,    0.1,  +13.7,  +15.0,   +8.1,+1100.00,17
16/06/2011,00:27:14,   0.0,  1.4,  205, +9.5,  77.1,    0.1,  +13.7,  +14.9,   +8.1,+1100.00,18
16/06/2011,00:27:32,   0.0,  1.6,  235, +9.6,  77.0,    0.4,  +13.9,  +14.8,   +8.1,+1100.00,21
16/06/2011,00:27:50,   0.0,  1.7,  183, +9.6,  77.1,    0.2,  +13.7,  +14.9,   +8.1,+1100.00,22
16/06/2011,00:28:15,   0.0,  0.0,  235, +9.5,  77.1,    0.3,  +13.8,  +14.8,   +8.1,+1100.00,1A
16/06/2011,00:28:33,   0.0,  1.4,  249, +9.6,  77.0,    0.0,  +13.7,  +14.9,   +8.1,+1100.00,21
16/06/2011,00:28:51,   0.0,  2.7,  221, +9.5,  77.1,    0.2,  +13.7,  +14.9,   +8.1,+1100.00,1D
16/06/2011,00:29:09,   0.0,  1.9,  212, +9.6,  77.3,    0.1,  +13.8,  +14.8,   +8.1,+1100.00,24
16/06/2011,00:29:35,   0.0,  3.2,  205, +9.6,  77.3,    0.1,  +13.8,  +14.9,   +8.1,+1100.00,21
16/06/2011,00:29:53,   0.0,  2.0,  202, +9.5,  77.3,    0.1,  +13.7,  +15.0,   +8.0,+1100.00,10
16/06/2011,00:30:11,   0.0,  1.7,  176, +9.6,  77.3,    0.0,  +13.7,  +15.0,   +8.1,+1100.00,13
16/06/2011,00:30:29,   0.0,  2.4,  200, +9.5,  77.3,    0.1,  +13.8,  +14.8,   +8.1,+1100.00,16
16/06/2011,00:30:54,   0.0,  1.4,  205, +9.5,  77.3,    0.3,  +13.7,  +14.9,   +8.1,+1100.00,1A
16/06/2011,00:31:12,   0.0,  1.5,  217, +9.6,  77.3,    0.2,  +13.7,  +14.9,   +8.1,+1100.00,19
16/06/2011,00:31:30,   0.0,  0.7,  191, +9.5,  77.3,    0.3,  +13.6,  +15.0,   +8.1,+1100.00,12
16/06/2011,00:31:48,   0.0,  2.1,  200, +9.5,  77.3,    0.1,  +13.6,  +15.0,   +8.1,+1100.00,0C
16/06/2011,00:32:14,   0.0,  1.9,  183, +9.6,  77.4,    0.1,  +13.8,  +14.9,   +8.1,+1100.00,23
16/06/2011,00:32:32,   0.0,  1.7,  225, +9.6,  77.4,    0.4,  +13.8,  +14.9,   +8.1,+1100.00,21
16/06/2011,00:32:50,   0.0,  1.9,  189, +9.6,  77.5,    0.1,  +13.8,  +14.9,   +8.1,+1100.00,2A
16/06/2011,00:33:15,   0.0,  2.3,  225, +9.5,  77.5,    0.2,  +13.8,  +14.9,   +8.1,+1100.00,1E
16/06/2011,00:33:33,   0.0,  2.9,  211, +9.6,  77.5,    0.4,  +13.8,  +14.9,   +8.1,+1100.00,22
16/06/2011,00:33:51,   0.0,  1.2,  204, +9.6,  77.5,    0.3,  +13.7,  +14.9,   +8.1,+1100.00,1A
16/06/2011,00:34:09,   0.0,  1.5,  231, +9.5,  77.4,    0.0,  +13.7,  +15.0,   +8.1,+1100.00,14
16/06/2011,00:34:35,   0.0,  1.2,  189, +9.6,  77.4,    0.1,  +13.7,  +14.9,   +8.1,+1100.00,26
16/06/2011,00:34:53,   0.0,  0.0,  182, +9.6,  77.4,    0.0,  +13.7,  +14.9,   +8.1,+1100.00,1B
16/06/2011,00:35:11,   0.0,  0.0,  205, +9.5,  77.4,    0.3,  +13.7,  +15.0,   +8.1,+1100.00,0C
16/06/2011,00:35:29,   0.0,  0.0,  202, +9.6,  77.4,    0.1,  +13.8,  +14.9,   +8.1,+1100.00,1A
16/06/2011,00:35:54,   0.0,  0.0,  182, +9.5,  77.5,    0.2,  +13.8,  +14.8,   +8.1,+1100.00,1F
16/06/2011,00:36:12,   0.0,  0.0,  183, +9.6,  77.4,    0.1,  +13.7,  +14.9,   +8.1,+1100.00,1A
16/06/2011,00:36:30,   0.0,  0.0,  214, +9.6,  77.6,    0.4,  +13.8,  +14.8,   +8.2,+1100.00,1B
16/06/2011,00:36:48,   0.0,  0.1,  209, +9.6,  77.6,    0.2,  +13.8,  +14.9,   +8.1,+1100.00,27
16/06/2011,00:37:14,   0.0,  0.0,  201, +9.6,  77.5,    0.3,  +13.7,  +15.0,   +8.1,+1100.00,0F
16/06/2011,00:37:32,   0.0,  0.0,  193, +9.5,  77.5,    0.1,  +13.7,  +14.9,   +8.1,+1100.00,1E
16/06/2011,00:37:50,   0.0,  0.0,  189, +9.5,  77.5,    0.0,  +13.8,  +14.9,   +8.1,+1100.00,23
16/06/2011,00:38:15,   0.0,  1.8,  194, +9.5,  77.6,    0.2,  +13.8,  +14.8,   +8.1,+1100.00,2C
16/06/2011,00:38:33,   0.0,  2.2,  201, +9.5,  77.6,    0.4,  +13.7,  +15.0,   +8.1,+1100.00,16
16/06/2011,00:38:51,   0.0,  1.1,  207, +9.5,  77.6,    0.2,  +13.6,  +15.0,   +8.1,+1100.00,17
16/06/2011,00:39:09,   0.0,  1.6,  194, +9.6,  77.6,    0.3,  +13.7,  +14.9,   +8.1,+1100.00,30
16/06/2011,00:39:35,   0.0,  1.0,  196, +9.5,  77.6,    0.1,  +13.7,  +15.0,   +8.1,+1100.00,20
16/06/2011,00:39:53,   0.0,  0.4,  209, +9.5,  77.6,    0.0,  +13.7,  +14.9,   +8.1,+1100.00,25
16/06/2011,00:40:11,   0.0,  0.0,  200, +9.5,  77.6,    0.3,  +13.7,  +15.0,   +8.1,+1100.00,05
16/06/2011,00:40:29,   0.0,  2.6,  182, +9.5,  77.6,    0.0,  +13.7,  +14.9,   +8.1,+1100.00,24
16/06/2011,00:40:54,   0.0,  0.0,  195, +9.5,  77.6,    0.1,  +13.6,  +15.0,   +8.1,+1100.00,16
16/06/2011,00:41:12,   0.0,  0.0,  212, +9.6,  77.6,    0.1,  +13.7,  +14.9,   +8.1,+1100.00,11
16/06/2011,00:41:30,   0.0,  0.0,  190, +9.5,  77.6,    0.2,  +13.8,  +14.9,   +8.2,+1100.00,18
16/06/2011,00:41:48,   0.0,  0.0,  220, +9.5,  77.6,    0.4,  +13.8,  +14.9,   +8.2,+1100.00,1D
16/06/2011,00:42:14,   0.0,  0.0,  199, +9.5,  77.6,    0.2,  +13.8,  +14.9,   +8.1,+1100.00,23
16/06/2011,00:42:32,   0.0,  0.0,  194, +9.5,  77.6,    0.2,  +13.7,  +14.9,   +8.1,+1100.00,1D
16/06/2011,00:42:50,   0.0,  0.0,  191, +9.5,  77.5,    0.2,  +13.8,  +14.9,   +8.1,+1100.00,1A
16/06/2011,00:43:15,   0.0,  0.0,  191, +9.5,  77.6,    0.1,  +13.8,  +14.9,   +8.1,+1100.00,1C
16/06/2011,00:43:33,   0.0,  0.1,  195, +9.5,  77.6,    0.2,  +13.8,  +14.8,   +8.2,+1100.00,22
16/06/2011,00:43:51,   0.0,  0.0,  213, +9.5,  77.6,    0.2,  +13.7,  +14.9,   +8.1,+1100.00,17
16/06/2011,00:44:09,   0.0,  0.4,  186, +9.5,  77.6,    0.1,  +13.7,  +14.9,   +8.1,+1100.00,27
16/06/2011,00:44:35,   0.0,  1.5,  202, +9.5,  77.6,    0.2,  +13.7,  +15.0,   +8.1,+1100.00,16
16/06/2011,00:44:53,   0.0,  2.3,  190, +9.5,  77.6,    0.2,  +13.8,  +14.9,   +8.1,+1100.00,24
16/06/2011,00:45:11,   0.0,  2.5,  190, +9.5,  77.6,    0.3,  +13.7,  +14.9,   +8.1,+1100.00,21
16/06/2011,00:45:29,   0.0,  1.9,  220, +9.5,  77.7,    0.1,  +13.7,  +14.9,   +8.1,+1100.00,26
16/06/2011,00:45:54,   0.0,  1.5,  185, +9.5,  77.8,    0.1,  +13.8,  +14.9,   +8.1,+1100.00,2C
16/06/2011,00:46:12,   0.0,  1.5,  208, +9.5,  77.8,    0.0,  +13.8,  +14.9,   +8.1,+1100.00,22
16/06/2011,00:46:30,   0.0,  0.9,  200, +9.4,  77.7,    0.3,  +13.8,  +14.9,   +8.1,+1100.00,1E
16/06/2011,00:46:48,   0.0,  0.1,  189, +9.4,  77.8,    0.3,  +13.7,  +15.0,   +8.1,+1100.00,27
16/06/2011,00:47:14,   0.0,  2.2,  215, +9.4,  77.8,    0.3,  +13.9,  +14.9,   +8.1,+1100.00,24
16/06/2011,00:47:32,   0.0,  2.4,  192, +9.4,  77.9,    0.2,  +13.8,  +14.8,   +8.1,+1100.00,28
16/06/2011,00:47:50,   0.0,  1.3,  197, +9.4,  78.0,    0.0,  +13.8,  +14.9,   +8.1,+1100.00,22
16/06/2011,00:48:15,   0.0,  1.0,  185, +9.4,  78.0,    0.2,  +13.8,  +14.9,   +8.1,+1100.00,20
16/06/2011,00:48:33,   0.0,  3.0,  192, +9.4,  77.9,    0.3,  +13.7,  +15.0,   +8.1,+1100.00,20
16/06/2011,00:48:51,   0.0,  2.2,  204, +9.4,  78.1,    0.3,  +13.8,  +14.9,   +8.1,+1100.00,1D
16/06/2011,00:49:09,   0.0,  1.6,  192, +9.4,  78.1,    0.1,  +13.6,  +15.0,   +8.0,+1100.00,1D
16/06/2011,00:49:35,   0.0,  2.0,  212, +9.4,  78.1,    0.2,  +13.8,  +14.9,   +8.1,+1100.00,1C
16/06/2011,00:49:53,   0.0,  1.9,  213, +9.4,  78.1,    0.0,  +13.8,  +14.9,   +8.1,+1100.00,23
16/06/2011,00:50:11,   0.0,  0.2,  207, +9.4,  78.1,    0.2,  +13.8,  +14.9,   +8.1,+1100.00,12
16/06/2011,00:50:28,   0.0,  2.1,  198, +9.4,  78.1,    0.1,  +13.7,  +14.9,   +8.0,+1100.00,21
16/06/2011,00:50:54,   0.0,  1.2,  203, +9.4,  78.1,    0.1,  +13.7,  +14.9,   +8.0,+1100.00,13
16/06/2011,00:51:12,   0.0,  1.4,  184, +9.4,  78.1,    0.0,  +13.7,  +15.0,   +8.1,+1100.00,10
16/06/2011,00:51:30,   0.0,  2.1,  192, +9.4,  78.1,    0.3,  +13.8,  +14.9,   +8.1,+1100.00,19
16/06/2011,00:51:48,   0.0,  1.3,  215, +9.4,  78.2,    0.0,  +13.7,  +14.9,   +8.1,+1100.00,1C
16/06/2011,00:52:14,   0.0,  1.3,  215, +9.4,  78.4,    0.2,  +13.6,  +15.0,   +8.0,+1100.00,10
16/06/2011,00:52:32,   0.0,  0.0,  208, +9.4,  78.4,    0.3,  +13.8,  +14.9,   +8.1,+1100.00,1A
16/06/2011,00:52:50,   0.0,  0.0,  214, +9.4,  78.3,    0.3,  +13.8,  +14.9,   +8.1,+1100.00,16
16/06/2011,00:53:08,   0.0,  0.0,  220, +9.4,  78.3,    0.1,  +13.8,  +14.9,   +8.1,+1100.00,15
16/06/2011,00:53:34,   0.0,  0.0,  194, +9.4,  78.4,    0.2,  +13.7,  +14.9,   +8.1,+1100.00,1F
16/06/2011,00:53:52,   0.0,  0.0,  213, +9.4,  78.4,    0.0,  +13.8,  +14.9,   +8.1,+1100.00,16
16/06/2011,00:54:10,   0.0,  0.0,  220, +9.4,  78.3,    0.2,  +13.8,  +14.9,   +8.1,+1100.00,10
16/06/2011,00:54:35,   0.0,  0.9,  204, +9.4,  78.3,    0.2,  +13.7,  +14.9,   +8.1,+1100.00,21
16/06/2011,00:54:53,   0.0,  1.8,  222, +9.4,  78.5,    0.1,  +13.7,  +14.9,   +8.1,+1100.00,22
16/06/2011,00:55:11,   0.0,  0.6,  199, +9.4,  78.5,    0.1,  +13.7,  +15.0,   +8.1,+1100.00,1F
16/06/2011,00:55:29,   0.0,  0.0,  199, +9.4,  78.6,    0.1,  +13.6,  +15.0,   +8.0,+1100.00,21
16/06/2011,00:55:55,   0.0,  0.0,  216, +9.3,  78.5,    0.1,  +13.7,  +15.0,   +8.1,+1100.00,16
16/06/2011,00:56:13,   0.0,  1.3,  232, +9.4,  78.5,    0.1,  +13.9,  +14.8,   +8.2,+1100.00,1E
16/06/2011,00:56:31,   0.0,  0.0,  206, +9.4,  78.6,    0.1,  +13.8,  +14.9,   +8.1,+1100.00,1B
16/06/2011,00:56:48,   0.0,  0.0,  204, +9.3,  78.6,    0.1,  +13.9,  +14.8,   +8.2,+1100.00,21
16/06/2011,00:57:14,   0.0,  0.0,  204, +9.3,  78.6,    0.2,  +13.7,  +14.9,   +8.1,+1100.00,1A
16/06/2011,00:57:32,   0.0,  1.3,  231, +9.3,  78.6,    0.4,  +13.8,  +14.9,   +8.1,+1100.00,21
16/06/2011,00:57:50,   0.0,  0.6,  229, +9.3,  78.7,    0.0,  +13.9,  +14.8,   +8.2,+1100.00,28
16/06/2011,00:58:08,   0.0,  1.2,  203, +9.3,  78.8,    0.1,  +13.8,  +14.9,   +8.1,+1100.00,22
16/06/2011,00:58:34,   0.0,  0.0,  215, +9.3,  78.8,    0.0,  +13.7,  +14.9,   +8.1,+1100.00,1F
16/06/2011,00:58:52,   0.0,  0.0,  227, +9.3,  78.8,    0.3,  +13.7,  +14.9,   +8.1,+1100.00,25
16/06/2011,00:59:10,   0.0,  0.0,  192, +9.3,  78.8,    0.0,  +13.7,  +15.0,   +8.1,+1100.00,16
16/06/2011,00:59:28,   0.0,  0.0,  225, +9.3,  78.9,    0.3,  +13.9,  +14.9,   +8.1,+1100.00,2A
16/06/2011,00:59:54,   0.0,  0.0,  221, +9.3,  79.0,    0.1,  +13.7,  +15.0,   +8.0,+1100.00,10
16/06/2011,01:00:12,   0.0,  1.9,  246, +9.3,  79.0,    0.3,  +13.8,  +15.0,   +8.1,+1100.00,12
16/06/2011,01:00:30,   0.0,  0.0,  210, +9.3,  79.0,    0.1,  +13.8,  +14.9,   +8.0,+1100.00,04
16/06/2011,01:00:55,   0.0,  0.0,  201, +9.3,  79.0,    0.2,  +13.8,  +14.9,   +8.1,+1100.00,0D
16/06/2011,01:01:13,   0.0,  0.0,  192, +9.3,  79.1,    0.1,  +13.8,  +14.9,   +8.1,+1100.00,11
16/06/2011,01:01:31,   0.0,  0.0,  210, +9.3,  79.1,    0.2,  +13.8,  +14.8,   +8.1,+1100.00,08
16/06/2011,01:01:49,   0.0,  0.0,  200, +9.3,  79.1,    0.1,  +13.8,  +14.9,   +8.1,+1100.00,10
16/06/2011,01:02:15,   0.0,  0.0,  197, +9.2,  79.0,    0.2,  +13.7,  +15.0,   +8.0,+1100.00,0E
16/06/2011,01:02:33,   0.0,  0.0,  251, +9.2,  79.0,    0.2,  +13.9,  +14.9,   +8.1,+1100.00,10
16/06/2011,01:02:51,   0.0,  0.0,  218, +9.3,  79.1,    0.3,  +13.8,  +14.9,   +8.0,+1100.00,14
16/06/2011,01:03:09,   0.0,  0.0,  191, +9.2,  79.3,    0.1,  +13.8,  +14.9,   +8.1,+1100.00,18
16/06/2011,01:03:34,   0.0,  0.0,  188, +9.2,  79.4,    0.2,  +13.7,  +14.9,   +8.0,+1100.00,1C
16/06/2011,01:03:52,   0.0,  0.0,  210, +9.2,  79.4,    0.4,  +13.7,  +15.0,   +8.0,+1100.00,08
16/06/2011,01:04:10,   0.0,  0.0,  199, +9.2,  79.4,    0.2,  +13.7,  +15.0,   +8.0,+1100.00,11
16/06/2011,01:04:28,   0.0,  0.0,  201, +9.2,  79.4,    0.1,  +13.7,  +15.0,   +8.0,+1100.00,09
16/06/2011,01:04:54,   0.0,  0.0,  198, +9.2,  79.4,    0.2,  +13.8,  +14.9,   +8.0,+1100.00,21
16/06/2011,01:05:12,   0.0,  0.0,  190, +9.2,  79.4,    0.3,  +13.6,  +15.0,   +8.0,+1100.00,0B
16/06/2011,01:05:30,   0.0,  0.0,  221, +9.2,  79.4,    0.1,  +13.7,  +15.0,   +8.0,+1100.00,05
16/06/2011,01:05:55,   0.0,  0.0,  227, +9.2,  79.4,    0.1,  +13.8,  +14.9,   +8.0,+1100.00,1B
16/06/2011,01:06:13,   0.0,  0.0,  177, +9.2,  79.4,    0.3,  +13.9,  +14.8,   +8.1,+1100.00,1D
16/06/2011,01:06:31,   0.0,  0.0,  203, +9.2,  79.5,    0.3,  +13.7,  +15.0,   +8.0,+1100.00,0A
16/06/2011,01:06:49,   0.0,  0.0,  191, +9.2,  79.4,    0.3,  +13.9,  +14.8,   +8.1,+1100.00,22
16/06/2011,01:07:15,   0.0,  0.0,  185, +9.2,  79.4,    0.2,  +13.8,  +14.9,   +8.1,+1100.00,1E
16/06/2011,01:07:33,   0.0,  0.0,  201, +9.2,  79.4,    0.0,  +13.7,  +14.9,   +8.1,+1100.00,10
16/06/2011,01:07:51,   0.0,  0.0,  185, +9.3,  79.4,    0.0,  +13.8,  +14.9,   +8.0,+1100.00,1C
16/06/2011,01:08:09,   0.0,  0.0,  208, +9.2,  79.4,    0.1,  +13.8,  +14.9,   +8.1,+1100.00,1D
16/06/2011,01:08:34,   0.0,  0.0,  210, +9.2,  79.4,    0.2,  +13.8,  +14.9,   +8.1,+1100.00,15
16/06/2011,01:08:52,   0.0,  0.0,  192, +9.2,  79.3,    0.4,  +13.8,  +14.9,   +8.1,+1100.00,1F
16/06/2011,01:09:10,   0.0,  0.0,  192, +9.2,  79.4,    0.3,  +13.7,  +14.9,   +8.1,+1100.00,19
16/06/2011,01:09:28,   0.0,  0.0,  176, +9.2,  79.3,    0.1,  +13.7,  +14.9,   +8.1,+1100.00,21
16/06/2011,01:09:54,   0.0,  0.0,  205, +9.2,  79.3,    0.2,  +13.8,  +14.9,   +8.1,+1100.00,1B
16/06/2011,01:10:12,   0.0,  0.0,  184, +9.2,  79.3,    0.4,  +13.8,  +14.9,   +8.1,+1100.00,15
16/06/2011,01:10:30,   0.0,  0.6,  191, +9.2,  79.3,    0.1,  +13.7,  +14.9,   +8.1,+1100.00,15
16/06/2011,01:10:55,   0.0,  2.3,  203, +9.2,  79.4,    0.1,  +13.7,  +14.9,   +8.1,+1100.00,16
16/06/2011,01:11:13,   0.0,  1.4,  194, +9.2,  79.4,    0.3,  +13.7,  +15.0,   +8.1,+1100.00,14
16/06/2011,01:11:31,   0.0,  0.9,  191, +9.2,  79.4,    0.3,  +13.8,  +14.9,   +8.1,+1100.00,1E
16/06/2011,01:11:49,   0.0,  1.2,  205, +9.2,  79.4,    0.4,  +13.7,  +14.9,   +8.1,+1100.00,1D
16/06/2011,01:12:15,   0.0,  0.0,  205, +9.2,  79.4,    0.1,  +13.8,  +14.9,   +8.1,+1100.00,12
16/06/2011,01:12:33,   0.0,  0.0,  201, +9.2,  79.4,    0.2,  +13.7,  +14.9,   +8.1,+1100.00,0E
16/06/2011,01:12:51,   0.0,  0.0,  223, +9.2,  79.5,    0.0,  +13.7,  +15.0,   +8.1,+1100.00,09
16/06/2011,01:13:09,   0.0,  0.0,  176, +9.2,  79.5,    0.2,  +13.8,  +14.9,   +8.1,+1100.00,1F
16/06/2011,01:13:34,   0.0,  0.0,  197, +9.2,  79.6,    0.1,  +13.7,  +14.9,   +8.1,+1100.00,1F
16/06/2011,01:13:52,   0.0,  0.0,  203, +9.1,  79.5,    0.1,  +13.9,  +14.8,   +8.1,+1100.00,12
16/06/2011,01:14:10,   0.0,  0.0,  203, +9.1,  79.5,    0.2,  +13.7,  +14.9,   +8.1,+1100.00,0D
16/06/2011,01:14:28,   0.0,  0.0,  219, +9.1,  79.5,    0.1,  +13.7,  +15.0,   +8.0,+1100.00,13
16/06/2011,01:14:54,   0.0,  0.0,  197, +9.1,  79.6,    0.1,  +13.8,  +14.9,   +8.1,+1100.00,22
16/06/2011,01:15:12,   0.0,  0.0,  198, +9.1,  79.7,    0.3,  +13.8,  +14.9,   +8.1,+1100.00,21
16/06/2011,01:15:30,   0.0,  0.0,  204, +9.1,  79.7,    0.1,  +13.8,  +14.9,   +8.1,+1100.00,13
16/06/2011,01:15:55,   0.0,  0.9,  198, +9.1,  79.7,    0.1,  +13.7,  +14.9,   +8.0,+1100.00,2D
16/06/2011,01:16:13,   0.0,  0.3,  181, +9.1,  79.9,    0.1,  +13.8,  +14.9,   +8.0,+1100.00,1D
16/06/2011,01:16:31,   0.0,  0.0,  181, +9.1,  79.9,    0.2,  +13.9,  +14.8,   +8.1,+1100.00,1C
16/06/2011,01:16:49,   0.0,  1.9,  182, +9.1,  79.9,    0.4,  +13.7,  +15.0,   +8.0,+1100.00,28
16/06/2011,01:17:15,   0.0,  0.0,  182, +9.1,  79.9,    0.1,  +13.8,  +14.9,   +8.0,+1100.00,1E
16/06/2011,01:17:33,   0.0,  0.0,  190, +9.1,  79.9,    0.1,  +13.8,  +14.9,   +8.1,+1100.00,1E
16/06/2011,01:17:51,   0.0,  0.0,  181, +9.1,  79.9,    0.1,  +13.7,  +15.0,   +8.0,+1100.00,14
16/06/2011,01:18:09,   0.0,  0.0,  194, +9.1,  80.1,    0.1,  +13.8,  +14.9,   +8.1,+1100.00,16
16/06/2011,01:18:34,   0.0,  0.0,  201, +9.1,  80.1,    0.2,  +13.8,  +14.9,   +8.0,+1100.00,09
16/06/2011,01:18:52,   0.0,  0.0,  181, +9.1,  80.1,    0.3,  +13.8,  +14.9,   +8.0,+1100.00,11
16/06/2011,01:19:10,   0.0,  1.5,  198, +9.1,  80.1,    0.1,  +13.9,  +14.8,   +8.0,+1100.00,18
16/06/2011,01:19:28,   0.0,  1.1,  191, +9.0,  80.3,    0.0,  +13.7,  +15.0,   +7.9,+1100.00,15
16/06/2011,01:19:54,   0.0,  0.0,  193, +9.1,  80.3,    0.0,  +13.8,  +14.9,   +8.0,+1100.00,16
16/06/2011,01:20:12,   0.0,  0.0,  187, +9.0,  80.5,    0.3,  +13.9,  +14.9,   +8.0,+1100.00,10
16/06/2011,01:20:30,   0.0,  0.0,  170, +9.0,  80.6,    0.2,  +13.8,  +14.8,   +8.0,+1100.00,06
16/06/2011,01:20:48,   0.0,  0.0,  200, +9.0,  80.6,    0.3,  +13.8,  +14.9,   +8.0,+1100.00,0B
16/06/2011,01:21:14,   0.0,  0.0,  191, +9.0,  80.6,    0.2,  +13.7,  +14.9,   +7.9,+1100.00,14
16/06/2011,01:21:32,   0.0,  0.0,  170, +9.0,  80.5,    0.3,  +13.7,  +14.9,   +7.9,+1100.00,11
16/06/2011,01:21:50,   0.0,  0.4,  178, +9.0,  80.6,    0.0,  +13.8,  +14.9,   +7.9,+1100.00,1C
16/06/2011,01:22:15,   0.0,  1.3,  184, +9.0,  80.6,    0.1,  +13.7,  +15.0,   +7.9,+1100.00,13